Location: Cointrin
(46.2167°N, 6.1167°E)
Time: 05:54:20
(UTC+00:00)

PAYLOAD B - Pass Details

Date: 08 February 2023
Orbit: 849 x 870 km, 99.1° (Epoch: 25 March)

Event Time Altitude Azimuth Distance (km) Brightness Sun altitude
Rises 18:00:30 0° 159° (SSE) 3,412 7.2 -12.5°
Reaches altitude 10° 18:02:51 10° 157° (SSE) 2,478 6.5 -12.9°
Maximum altitude 18:08:20 78° 73° (ENE) 876 4.1 -13.9°
Drops below altitude 10° 18:13:51 10° 348° (NNW) 2,487 6.7 -14.8°
Sets 18:16:14 0° 347° (NNW) 3,426 7.5 -15.2°
